Location: *
(46.3500°N, 10.9000°E)
Time: 22:52:45
(UTC+00:00)

A-11 Canister half - Pass Details

Date: 26 April 2021
Orbit: 1526 x 1682 km, 47.3° (Epoch: 13 May)

Event Time Altitude Azimuth Distance (km) Brightness Sun altitude
Rises 19:25:42 0° 293° (WNW) 4,934 13.6 -11.0°
Reaches altitude 10° 19:29:06 10° 286° (WNW) 3,948 12.4 -11.5°
Maximum altitude 19:38:14 40° 222° (SW) 2,308 10.0 -12.8°
Enters shadow 19:47:01 11° 158° (SSE) 3,828 10.6 -14.0°
Drops below altitude 10° 19:47:16 10° 158° (SSE) 3,899 - -14.1°
Sets 19:50:38 0° 151° (SSE) 4,866 - -14.5°
